[[{"header":{"parameterUnit":"m.s-1","parameterCategory":1,"la1":30.2991,"la2":30.254,"lo1":-89.0895,"lo2":-89.0444,"dy":0.0017,"dx":0.0017,"nx":28,"ny":28,"refTime":"2025-04-14T21:00:00:Z","depth":0,"parameterNumber":2,"parameterNumberName":"U-component_of_WINDS"},"data":[0,0,0,0,0,0,0,0,0,0,0,0,0,0,0,0,0,0,0,0,0,0,0,0,0,0,0,0,0,0,0,0,0,0,0,0,0,0,0,0,0,0,0,0,0,0,0,0,0,0,0,0,0,0,0,0,0,0,4.7415,4.7416,0,4.7549,4.755,4.7552,4.7506,4.7503,4.75,4.7497,4.7636,4.7642,4.7649,0,0,0,0,0,0,0,0,0,0,0,0,0,4.7121,4.7127,4.7415,4.7417,4.7418,4.7549,4.755,4.7552,4.7506,4.7503,4.7499,4.7496,4.7634,4.7641,4.7649,0,0,0,0,0,0,0,0,0,0,0,0,0,4.7252,4.7129,4.7415,4.7411,4.7412,4.7548,4.755,4.7553,4.7507,4.7503,4.7498,4.7494,4.7631,4.7641,4.765,4.7798,0,0,4.768,4.7684,0,0,0,0,0,0,0,0,4.7244,4.7262,4.741,4.7411,4.7413,4.7506,4.7498,4.7635,4.7508,4.7471,4.7497,4.7492,4.7596,4.7609,4.7644,4.7805,4.7811,4.7681,4.7686,4.7691,4.7693,0,0,0,0,0,0,0,4.7235,4.7256,4.7468,4.7412,4.7414,4.7403,4.7417,4.7524,4.7557,4.7474,4.7471,4.7487,4.7596,4.7634,4.7646,4.7813,4.768,4.7689,4.7695,4.7699,4.8104,4.8109,0,0,0,0,0,0,4.7225,4.7249,4.7464,4.7472,4.7316,4.7412,4.7427,4.7481,4.7556,4.7563,4.7491,4.7485,4.762,4.7635,4.7651,4.783,4.7691,4.77,4.7705,4.8099,4.8105,4.811,0,0,0,0,0,0,4.7219,4.7245,4.7458,4.736,4.7386,4.7422,4.7482,4.7486,4.7523,4.7569,4.7574,4.7524,4.7617,4.7638,4.7762,4.7834,4.7704,4.7713,4.8093,4.8101,4.8108,4.8189,0,0,0,0,0,0,4.7211,4.7243,4.7299,4.7361,4.7392,4.7567,4.7487,4.7491,4.754,4.7533,4.7601,4.7608,4.7615,4.7748,4.7772,4.7845,4.772,4.8087,4.8096,4.8105,4.818,4.8198,4.8214,0,0,0,0,0,4.72,4.7317,4.7302,4.7328,4.7462,4.7571,4.7588,4.7594,4.7546,4.7603,4.7632,4.7605,4.7823,4.7761,4.7788,4.7865,4.8082,4.8094,4.8105,4.8172,4.8195,4.8213,0,0,0,0,0,0,4.7262,4.7325,4.7309,4.7449,4.7505,4.7563,4.7635,4.7617,4.7689,4.7679,4.7684,4.77,4.7828,4.7859,4.779,4.8013,4.7945,4.7962,4.7988,4.801,4.8026,4.8016,4.7728,0,0,0,0,0,4.7291,4.7374,4.7424,4.7543,4.7572,4.7599,4.7646,4.7646,4.7705,4.7728,4.7766,4.7825,4.7906,4.7959,4.8037,4.8184,4.8199,4.8251,4.8268,4.8281,4.8296,4.8377,4.8401,4.8147,4.8147,4.8147,0,0,4.7354,4.7398,4.745,4.7556,4.76,4.7686,4.7619,4.7712,4.7776,4.7742,4.7862,4.7893,4.7958,4.8095,4.8158,4.8125,4.837,4.8296,4.8306,4.8314,4.8391,4.8415,4.8437,4.8155,4.8153,4.8152,0,0,4.7511,4.7553,4.7656,4.7701,4.7768,4.7785,4.781,4.7872,4.789,4.8011,4.7988,4.8064,4.8204,4.8252,4.8295,4.8472,4.845,4.8497,4.8585,4.8664,4.8684,4.8702,4.8766,4.8789,4.8511,4.8512,4.8512,0,4.758,4.7708,4.7712,4.7808,4.7855,4.7829,4.7934,4.7978,4.8067,4.8101,4.8063,4.8239,4.8281,4.8429,4.8472,4.8508,4.8537,4.8489,4.8681,4.8699,4.8716,4.8776,4.88,4.8517,4.8516,4.8516,4.8515,0,4.779,4.7879,4.7955,4.8041,4.8097,4.8197,4.8217,4.8274,4.827,4.8292,4.8415,4.8465,4.8552,4.8588,4.8584,4.8736,4.8714,4.8679,4.8611,4.8745,4.8802,4.8826,4.8524,4.8522,4.8521,4.852,0,0,4.7988,4.8076,4.8104,4.8143,4.8215,4.8285,4.8384,4.8469,4.8518,4.8581,4.8665,4.8785,4.8753,4.8802,4.8803,4.8873,4.9011,4.8829,4.8831,4.8861,4.9182,4.9208,4.9235,4.8997,4.9001,4.9005,4.9176,0,4.8152,4.8326,4.8333,4.8492,4.8575,4.8551,4.8638,4.8692,4.8716,4.879,4.8816,4.8901,4.8852,4.8882,4.8949,4.898,4.9075,4.8967,4.9076,4.9079,4.906,4.9264,4.9292,4.9451,4.9199,4.9203,4.9205,0,4.8365,4.8434,4.8602,4.8663,4.8698,4.8776,4.8855,4.8926,4.8987,4.8999,4.9054,4.9047,4.9149,4.9078,4.9221,4.9147,4.9192,4.9214,4.922,4.923,4.915,4.928,4.9502,4.9526,4.9241,4.9238,4.9235,0,4.8494,4.8629,4.8746,4.8781,4.8855,4.891,4.8944,4.9001,4.9052,4.9122,4.9155,4.9236,4.928,4.9343,4.9358,4.9305,4.9501,4.9431,4.9514,4.9514,4.9556,4.9553,4.9788,4.9585,4.9585,4.9585,4.9584,0,4.8675,4.8779,4.8805,4.8878,4.8993,4.9001,4.9115,4.9145,4.9196,4.9274,4.926,4.9334,4.9348,4.9426,4.9438,4.9554,4.9575,4.9588,4.959,4.9589,4.9587,4.9618,4.9607,4.9591,4.959,4.9588,4.9587,0,4.8838,4.886,4.8987,4.9047,4.9065,4.9147,4.9199,4.9269,4.929,4.939,4.9414,4.9448,4.9539,4.956,4.9668,4.9676,4.9814,4.9805,4.9793,4.9792,4.9874,4.9866,5.0137,5.0173,4.9947,4.9949,4.9951,0,4.8953,4.9031,4.91,4.9151,4.9188,4.927,4.9322,4.9334,4.9389,4.9465,4.9526,4.9615,4.9686,4.9832,4.9868,4.995,4.9943,5.0033,4.9956,4.9953,4.9945,4.994,4.9948,5.0047,5.005,5.0052,5.0053,0,4.9153,4.916,4.9236,4.9316,4.9378,4.9442,4.9502,4.9545,4.9565,4.9628,4.972,4.9776,4.9886,4.9974,5.0057,5.0093,5.0077,5.0077,5.0101,5.0101,5.0091,5.0097,4.9833,5.0071,5.0069,5.0068,5.0067,5.0066,4.9296,4.9365,4.9424,4.9509,4.9556,4.9613,4.9682,4.9712,4.9789,4.9879,4.9881,4.9982,5.0043,5.0153,5.0193,5.0273,5.0245,5.0279,5.0288,5.0296,5.0304,5.0078,5.0288,5.0287,5.0287,5.0287,5.0286,0,4.9495,4.9533,4.9611,4.9696,4.9763,4.9742,4.9808,4.9866,4.9954,5.0012,5.0083,5.0189,5.0275,5.0318,5.0403,5.0459,5.0454,5.0481,5.0476,5.0485,5.0323,5.0294,5.0483,5.0483,5.0483,5.0483,5.0483,5.0483,4.9607,4.9724,4.9738,4.9878,4.9914,5.0012,5.0052,5.0105,5.0151,5.027,5.0342,5.0369,5.0421,5.051,5.0588,5.0599,5.0631,5.0662,5.0668,5.0516,5.0496,5.0477,5.045,5.0669,5.0669,5.0823,5.0825,5.0826]},{"header":{"parameterUnit":"m.s-1","parameterCategory":1,"la1":30.2991,"la2":30.254,"lo1":-89.0895,"lo2":-89.0444,"dy":0.0017,"dx":0.0017,"nx":28,"ny":28,"refTime":"2025-04-14T21:00:00:Z","depth":0,"parameterNumber":3,"parameterNumberName":"V-component_of_WINDS"},"data":[0,0,0,0,0,0,0,0,0,0,0,0,0,0,0,0,0,0,0,0,0,0,0,0,0,0,0,0,0,0,0,0,0,0,0,0,0,0,0,0,0,0,0,0,0,0,0,0,0,0,0,0,0,0,0,0,0,0,-2.33,-2.33,0,-2.3354,-2.3355,-2.3355,-2.3336,-2.3335,-2.3333,-2.3332,-2.3387,-2.339,-2.3392,0,0,0,0,0,0,0,0,0,0,0,0,0,-2.3178,-2.318,-2.33,-2.33,-2.3301,-2.3354,-2.3355,-2.3356,-2.3336,-2.3335,-2.3333,-2.3332,-2.3386,-2.3389,-2.3392,0,0,0,0,0,0,0,0,0,0,0,0,0,-2.3231,-2.3181,-2.3299,-2.3298,-2.3298,-2.3354,-2.3355,-2.3356,-2.3336,-2.3335,-2.3333,-2.3331,-2.3385,-2.3389,-2.3393,-2.3453,0,0,-2.3405,-2.3406,0,0,0,0,0,0,0,0,-2.3228,-2.3236,-2.3297,-2.3298,-2.3298,-2.3336,-2.3332,-2.3388,-2.3337,-2.3322,-2.3332,-2.333,-2.3372,-2.3376,-2.3391,-2.3456,-2.3458,-2.3405,-2.3407,-2.3409,-2.341,0,0,0,0,0,0,0,-2.3225,-2.3233,-2.3321,-2.3298,-2.3299,-2.3294,-2.3299,-2.3343,-2.3356,-2.3323,-2.3322,-2.3329,-2.3372,-2.3387,-2.3392,-2.3459,-2.3405,-2.3408,-2.3411,-2.3412,-2.3576,-2.3578,0,0,0,0,0,0,-2.3221,-2.323,-2.3319,-2.3323,-2.3258,-2.3298,-2.3304,-2.3326,-2.3356,-2.3359,-2.333,-2.3327,-2.3381,-2.3387,-2.3394,-2.3466,-2.3409,-2.3413,-2.3415,-2.3574,-2.3577,-2.3579,0,0,0,0,0,0,-2.3218,-2.3229,-2.3317,-2.3276,-2.3287,-2.3302,-2.3327,-2.3328,-2.3343,-2.3361,-2.3363,-2.3343,-2.338,-2.3388,-2.3439,-2.3468,-2.3414,-2.3418,-2.3572,-2.3575,-2.3578,-2.3611,0,0,0,0,0,0,-2.3215,-2.3228,-2.3251,-2.3277,-2.3289,-2.3362,-2.3329,-2.333,-2.335,-2.3347,-2.3374,-2.3377,-2.3379,-2.3433,-2.3442,-2.3472,-2.3421,-2.3569,-2.3573,-2.3577,-2.3608,-2.3615,-2.3622,0,0,0,0,0,-2.3211,-2.3258,-2.3253,-2.3263,-2.3319,-2.3363,-2.337,-2.3373,-2.3353,-2.3376,-2.3387,-2.3376,-2.3463,-2.3438,-2.3449,-2.348,-2.3567,-2.3572,-2.3577,-2.3605,-2.3614,-2.3622,0,0,0,0,0,0,-2.3235,-2.3262,-2.3256,-2.3313,-2.3336,-2.336,-2.3389,-2.3382,-2.3411,-2.3407,-2.3408,-2.3414,-2.3466,-2.3478,-2.345,-2.354,-2.3512,-2.3519,-2.353,-2.3539,-2.3546,-2.3541,-2.3424,0,0,0,0,0,-2.3248,-2.3282,-2.3303,-2.3352,-2.3364,-2.3375,-2.3394,-2.3394,-2.3418,-2.3427,-2.3442,-2.3465,-2.3498,-2.3519,-2.355,-2.361,-2.3615,-2.3637,-2.3643,-2.3649,-2.3655,-2.3687,-2.3697,-2.3594,-2.3594,-2.3594,0,0,-2.3273,-2.3292,-2.3313,-2.3357,-2.3375,-2.341,-2.3383,-2.3421,-2.3447,-2.3433,-2.3481,-2.3493,-2.3519,-2.3574,-2.3599,-2.3586,-2.3684,-2.3655,-2.3659,-2.3662,-2.3693,-2.3702,-2.3711,-2.3597,-2.3596,-2.3596,0,0,-2.3337,-2.3355,-2.3398,-2.3416,-2.3444,-2.3451,-2.3461,-2.3486,-2.3494,-2.3543,-2.3532,-2.3563,-2.362,-2.3638,-2.3655,-2.3727,-2.3718,-2.3738,-2.3773,-2.3805,-2.3813,-2.382,-2.3845,-2.3854,-2.3743,-2.3743,-2.3743,0,-2.3365,-2.3418,-2.342,-2.346,-2.3479,-2.3469,-2.3511,-2.3529,-2.3565,-2.3579,-2.3564,-2.3634,-2.3651,-2.371,-2.3728,-2.3742,-2.3753,-2.3734,-2.3812,-2.3819,-2.3825,-2.3849,-2.3859,-2.3746,-2.3745,-2.3745,-2.3745,0,-2.3451,-2.3488,-2.3519,-2.3554,-2.3577,-2.3618,-2.3626,-2.365,-2.3648,-2.3656,-2.3706,-2.3726,-2.3761,-2.3775,-2.3773,-2.3834,-2.3825,-2.3811,-2.3783,-2.3837,-2.386,-2.3869,-2.3749,-2.3748,-2.3747,-2.3747,0,0,-2.3531,-2.3568,-2.3579,-2.3595,-2.3625,-2.3653,-2.3694,-2.3728,-2.3748,-2.3773,-2.3807,-2.3855,-2.3842,-2.3861,-2.3862,-2.389,-2.3945,-2.3872,-2.3872,-2.3884,-2.4013,-2.4023,-2.4033,-2.3939,-2.3941,-2.3942,-2.401,0,-2.3597,-2.3668,-2.3672,-2.3736,-2.377,-2.3761,-2.3796,-2.3818,-2.3827,-2.3857,-2.3867,-2.3901,-2.3882,-2.3894,-2.3921,-2.3932,-2.397,-2.3928,-2.397,-2.3971,-2.3962,-2.4045,-2.4056,-2.4119,-2.4019,-2.4021,-2.4022,0,-2.3683,-2.3712,-2.378,-2.3805,-2.3819,-2.3851,-2.3883,-2.3911,-2.3936,-2.3941,-2.3963,-2.396,-2.4001,-2.3972,-2.4029,-2.4,-2.4017,-2.4026,-2.4028,-2.4031,-2.3999,-2.405,-2.4139,-2.4149,-2.4036,-2.4035,-2.4034,0,-2.3734,-2.379,-2.3837,-2.3852,-2.3882,-2.3904,-2.3918,-2.3941,-2.3962,-2.399,-2.4003,-2.4035,-2.4053,-2.4078,-2.4083,-2.4062,-2.414,-2.4112,-2.4145,-2.4145,-2.4161,-2.4159,-2.4253,-2.4173,-2.4173,-2.4173,-2.4173,0,-2.3807,-2.3849,-2.3861,-2.389,-2.3937,-2.394,-2.3986,-2.3998,-2.4019,-2.405,-2.4045,-2.4074,-2.408,-2.4111,-2.4115,-2.4161,-2.4169,-2.4174,-2.4175,-2.4174,-2.4174,-2.4185,-2.4181,-2.4176,-2.4175,-2.4175,-2.4174,0,-2.3871,-2.3881,-2.3933,-2.3958,-2.3965,-2.3998,-2.4019,-2.4047,-2.4056,-2.4096,-2.4106,-2.412,-2.4156,-2.4164,-2.4206,-2.421,-2.4264,-2.426,-2.4255,-2.4255,-2.4287,-2.4284,-2.4391,-2.4405,-2.4317,-2.4317,-2.4318,0,-2.3917,-2.3949,-2.3977,-2.3998,-2.4013,-2.4046,-2.4067,-2.4073,-2.4095,-2.4126,-2.415,-2.4185,-2.4214,-2.4271,-2.4285,-2.4318,-2.4315,-2.435,-2.432,-2.4318,-2.4315,-2.4312,-2.4316,-2.4356,-2.4357,-2.4358,-2.4358,0,-2.3996,-2.4,-2.403,-2.4063,-2.4088,-2.4114,-2.4139,-2.4156,-2.4164,-2.419,-2.4226,-2.4248,-2.4292,-2.4327,-2.436,-2.4374,-2.4368,-2.4368,-2.4377,-2.4376,-2.4372,-2.4374,-2.427,-2.4365,-2.4364,-2.4364,-2.4364,-2.4363,-2.4052,-2.408,-2.4104,-2.4139,-2.4158,-2.4181,-2.4209,-2.4221,-2.4252,-2.4288,-2.429,-2.433,-2.4354,-2.4397,-2.4413,-2.4445,-2.4434,-2.4447,-2.445,-2.4454,-2.4456,-2.4368,-2.4451,-2.4451,-2.445,-2.445,-2.445,0,-2.413,-2.4146,-2.4178,-2.4212,-2.4239,-2.4232,-2.4259,-2.4282,-2.4317,-2.434,-2.4369,-2.4411,-2.4445,-2.4462,-2.4496,-2.4517,-2.4515,-2.4526,-2.4524,-2.4527,-2.4464,-2.4453,-2.4527,-2.4527,-2.4527,-2.4527,-2.4527,-2.4527,-2.4174,-2.4221,-2.4227,-2.4284,-2.4299,-2.4338,-2.4354,-2.4375,-2.4394,-2.4442,-2.447,-2.4481,-2.4502,-2.4537,-2.4568,-2.4572,-2.4585,-2.4597,-2.4599,-2.454,-2.4532,-2.4524,-2.4513,-2.4599,-2.46,-2.466,-2.466,-2.4661]}]]